This demonstration page uses our WeatherBlox Daily Observations layout. Learn more.

38.89511, -77.03637

Hourly Observations for October 26, 2015

Temp ( °F °C ) Dew Point ( °F °C ) Humidity (%) Winds ( mph kmh ) Pressure ( in mb ) Visibility ( mi km ) Precip ( " mm )
12:52 am 00:52 Cloudy 54 12.2 41 5 62 62 N 12 19 30.33 1027 10 16.0934 0 0
1:52 am 01:52 Cloudy 53 11.7 40 4.4 61 61 N 10 17 30.34 1027 10 16.0934 0 0
2:52 am 02:52 Partly Cloudy 51 10.6 39 3.9 64 64 N 10 17 30.35 1028 10 16.0934 0 0
3:52 am 03:52 Mostly Cloudy 49 9.4 39 3.9 69 69 N 9 15 30.35 1028 10 16.0934 0 0
4:52 am 04:52 Mostly Cloudy 49 9.4 39 3.9 69 69 N 12 19 30.37 1028 10 16.0934 0 0
5:52 am 05:52 Mostly Cloudy 49 9.4 39 3.9 69 69 N 8 13 30.39 1029 10 16.0934 0 0
6:52 am 06:52 Mostly Cloudy 50 10 39 3.9 66 66 N 10 17 30.41 1030 10 16.0934 0 0
7:52 am 07:52 Mostly Cloudy 50 10 39 3.9 66 66 N 9 15 30.43 1031 10 16.0934 0 0
8:52 am 08:52 Cloudy 52 11.1 38 3.3 59 59 NNE 12 19 30.45 1031 10 16.0934 0 0
9:52 am 09:52 Cloudy 53 11.7 38 3.3 57 57 NNE 14 22 30.46 1032 10 16.0934 0 0
10:52 am 10:52 Cloudy 55 12.8 36 2.2 49 49 NE 9 15 30.46 1032 10 16.0934 0 0
11:52 am 11:52 Mostly Cloudy 56 13.3 35 1.7 46 46 NE 14 22 30.47 1032 10 16.0934 0 0
12:52 pm 12:52 Mostly Cloudy 58 14.4 35 1.7 42 42 ENE 8 13 30.46 1032 10 16.0934 0 0
1:52 pm 13:52 Mostly Cloudy 59 15 34 1.1 39 39 NNE 5 7 30.44 1031 10 16.0934 0 0
2:52 pm 14:52 Mostly Cloudy 60 15.6 33 0.6 36 36 N 7 11 30.43 1030 10 16.0934 0 0
3:52 pm 15:52 Mostly Cloudy 60 15.6 33 0.6 36 36 ENE 6 9 30.42 1030 10 16.0934 0 0
4:52 pm 16:52 Mostly Cloudy 58 14.4 32 0 38 38 E 3 6 30.42 1030 10 16.0934 0 0
5:52 pm 17:52 Mostly Cloudy 57 13.9 35 1.7 44 44 ESE 6 9 30.42 1030 10 16.0934 0 0
6:52 pm 18:52 Mostly Cloudy 55 12.8 37 2.8 51 51 ESE 9 15 30.43 1031 10 16.0934 0 0
7:52 pm 19:52 Mostly Cloudy 52 11.1 38 3.3 59 59 E 6 9 30.45 1031 10 16.0934 0 0
8:52 pm 20:52 Mostly Cloudy 51 10.6 36 2.2 56 56 Calm 30.46 1031 10 16.0934 0 0
9:52 pm 21:52 Mostly Cloudy 51 10.6 36 2.2 56 56 Calm 30.48 1032 10 16.0934 0 0
10:52 pm 22:52 Mostly Cloudy 50 10 40 4.4 68 68 Calm 30.49 1033 10 16.0934 0 0
11:52 pm 23:52 Mostly Cloudy 49 9.4 41 5 74 74 Calm 30.5 1033 10 16.0934 0 0

Powered by AerisWeather